Location: Newark
(45.4422°N, 16.2769°E)
Time: 23:24:39
(UTC+00:00)

Tiros 1 despin weight - Pass Details

Date: 15 December 2019
Orbit: 594 x 643 km, 48.2° (Epoch: 22 January)

Event Time Altitude Azimuth Distance (km) Brightness Sun altitude
Rises 06:13:14 0° 287° (WNW) 2,872 - -3.0°
Exits shadow 06:13:54 - 287° (WNW) 2,607 ? -2.9°
Reaches altitude 10° 06:15:33 10° 288° (WNW) 1,959 ? -2.6°
Maximum altitude 06:20:03 78° 15° (NNE) 618 ? -1.9°
Drops below altitude 10° 06:24:29 10° 103° (ESE) 1,931 ? -1.3°
Sets 06:26:46 0° 104° (ESE) 2,827 ? -1.0°
